Location: Domachevo
(51.7500°N, 23.6000°E)
Time: 17:25:53
(UTC+03:00)

Genesis I - Visible Passes

Search period start: 26 September 2018 00:00
Search period end: 06 October 2018 00:00
Orbit: 481 x 545 km, 64.5° (Epoch: 24 September)

Date Brightness Start Highest point End Pass type
(mag) Time Alt. Az. Time Alt. Az. Time Alt. Az.
26 Sep 5.8 20:26:56 10° NNW 20:29:07 14° N 20:31:18 10° NNE visible
26 Sep 5.3 22:04:57 10° NNW 22:07:49 21° NNE 22:07:49 21° NNE visible
26 Sep 6.5 23:42:19 10° NW 23:42:44 13° NW 23:42:44 13° NW visible
27 Sep 5.8 20:10:28 10° NNW 20:12:40 14° N 20:14:50 10° NNE visible
27 Sep 5.2 21:48:30 10° NNW 21:51:39 21° NNE 21:51:39 21° NNE visible
27 Sep 6.3 23:25:52 10° NW 23:26:35 15° NW 23:26:35 15° NW visible
28 Sep 5.7 19:54:02 10° NNW 19:56:13 14° N 19:58:23 10° NNE visible
28 Sep 5.1 21:32:02 10° NNW 21:35:15 21° NNE 21:35:31 21° NNE visible
28 Sep 6.1 23:09:25 10° NW 23:10:26 17° NW 23:10:26 17° NW visible
29 Sep 5.7 19:37:35 10° NNW 19:39:46 14° N 19:41:56 10° NNE visible
29 Sep 5.0 21:15:35 10° NNW 21:18:48 21° NNE 21:19:24 21° NE visible
29 Sep 5.8 22:52:57 10° NW 22:54:19 20° NW 22:54:19 20° NW visible
30 Sep 5.0 20:59:07 10° NNW 21:02:20 22° NNE 21:03:18 20° NE visible
30 Sep 5.5 22:36:30 10° NW 22:38:13 24° NW 22:38:13 24° NW visible
01 Oct 5.0 20:42:40 10° NNW 20:45:53 22° NNE 20:47:13 19° NE visible
01 Oct 5.2 22:20:02 10° NW 22:22:09 29° NW 22:22:09 29° NW visible
02 Oct 5.0 20:26:12 10° NNW 20:29:26 22° NNE 20:31:11 17° ENE visible
02 Oct 4.7 22:03:34 10° NW 22:06:07 36° NW 22:06:07 36° NW visible
03 Oct 5.0 20:09:44 10° NNW 20:12:59 22° NNE 20:15:10 15° ENE visible
03 Oct 4.2 21:47:07 10° NW 21:50:06 46° NNW 21:50:06 46° NNW visible
04 Oct 4.9 19:53:16 10° NNW 19:56:31 22° NNE 19:59:12 13° ENE visible
04 Oct 3.7 21:30:39 10° NW 21:34:08 61° NNW 21:34:08 61° NNW visible
05 Oct 4.9 19:36:48 10° NNW 19:40:03 22° NNE 19:43:16 10° ENE visible
05 Oct 3.2 21:14:11 10° NW 21:18:12 79° NNE 21:18:12 79° NNE visible
05 Oct 6.4 22:52:51 10° WNW 22:53:09 11° WNW 22:53:09 11° WNW visible
